Lubbock, TX

9:47 AM CDT on May 26, 2017 (GMT -0500)
Lubbock International

Weather History for KLBB - June, 2013

Change the Weather History Date:

Sunday, June 23, 2013

  Actual Average Record
Temperature  
Mean Temperature 85 °F 79 °F  
Max Temperature 100 °F 92 °F 107 °F (1980)
Min Temperature 70 °F 66 °F 56 °F (1927)
Degree Days  
Heating Degree Days 0 0  
Month to date heating degree days 0 0  
Since 1 June heating degree days 0 0  
Since 1 July heating degree days 3208 3377  
Cooling Degree Days 20 14  
Month to date cooling degree days 326 275  
Year to date cooling degree days 641 521  
Since 1 June cooling degree days 326 275  
Growing Degree Days 35 (Base 50)    
Moisture  
Dew Point 56 °F    
Average Humidity 40    
Maximum Humidity 61    
Minimum Humidity 19    
Precipitation  
Precipitation 0.00 in 0.09 in 1.71 in (1932)
Month to date precipitation 1.15 2.42  
Year to date precipitation 4.57 8.63  
Snow  
Snow 0.00 in 0.00 in - ()
Month to date snowfall 0.0 0.0  
Since 1 June snowfall 0.0 0.0  
Since 1 July snowfall 4.1 8.2  
Snow Depth 0.00 in    
Sea Level Pressure  
Sea Level Pressure 29.72 in    
Wind  
Wind Speed 18 mph (South)    
Max Wind Speed 31 mph    
Max Gust Speed 37 mph    
Visibility 10 miles    
Events      
T = Trace of Precipitation, MM = Missing Value Source: NWS Daily Summary

Daily Weather History Graph

Daily Weather History Graph

Search for Another Location

Airport or City:

Trip Planner

Search our weather history database for the weather conditions in past years. The results will help you decide how hot, cold, wet, or windy it might be!

Date:

Astronomy

Jun. 23, 2013 Rise Set
Actual Time 6:37 AM CDT 9:01 PM CDT
Civil Twilight 6:08 AM CDT 9:30 PM CDT
Nautical Twilight 5:33 AM CDT 10:06 PM CDT
Astronomical Twilight 4:54 AM CDT 10:45 PM CDT
Moon 9:19 PM CDT (6/23) 6:54 AM CDT (6/23)
Length of Visible Light 15h 21m
Length of Day
14h 23m
Full, 100% of the Moon is Illuminated
Jun 23
Full
Jun 29
Last Quarter
Jul 8
New
Jul 15
First Quarter
Jul 22
Full

Hourly Weather History & Observations

Time (CDT) Temp. Heat Index Dew Point Humidity Pressure Visibility Wind Dir Wind Speed Gust Speed Precip Events Conditions
12:53 AM 79.0 °F - 57.0 °F 47% 29.74 in 10.0 mi South 26.5 mph 35.7 mph N/A   Mostly Cloudy
1:53 AM 77.0 °F - 55.9 °F 48% 29.74 in 10.0 mi South 18.4 mph 28.8 mph N/A   Scattered Clouds
2:53 AM 75.9 °F - 54.0 °F 46% 29.75 in 10.0 mi South 17.3 mph - N/A   Partly Cloudy
3:53 AM 73.9 °F - 54.0 °F 50% 29.75 in 10.0 mi South 12.7 mph - N/A   Partly Cloudy
4:53 AM 72.0 °F - 54.0 °F 53% 29.76 in 10.0 mi SSE 9.2 mph - N/A   Scattered Clouds
5:53 AM 72.0 °F - 53.1 °F 51% 29.75 in 10.0 mi South 10.4 mph - N/A   Scattered Clouds
6:53 AM 70.0 °F - 55.0 °F 59% 29.74 in 10.0 mi SSE 11.5 mph - N/A   Mostly Cloudy
7:53 AM 72.0 °F - 55.0 °F 55% 29.75 in 10.0 mi South 15.0 mph 21.9 mph N/A   Mostly Cloudy
8:53 AM 75.9 °F - 57.0 °F 52% 29.75 in 10.0 mi South 17.3 mph - N/A   Partly Cloudy
9:53 AM 80.1 °F 80.6 °F 57.9 °F 47% 29.75 in 10.0 mi South 20.7 mph 27.6 mph N/A   Scattered Clouds
10:53 AM 84.9 °F 84.2 °F 57.9 °F 40% 29.74 in 10.0 mi South 17.3 mph - N/A   Scattered Clouds
11:53 AM 89.1 °F 87.7 °F 57.0 °F 34% 29.74 in 10.0 mi SSW 16.1 mph - N/A   Mostly Cloudy
12:53 PM 93.0 °F 90.6 °F 53.1 °F 26% 29.72 in 10.0 mi SSW 12.7 mph - N/A   Mostly Cloudy
1:53 PM 97.0 °F 94.6 °F 54.0 °F 23% 29.71 in 10.0 mi South 15.0 mph 23.0 mph N/A   Partly Cloudy
2:53 PM 98.1 °F - 52.0 °F 21% 29.69 in 10.0 mi South 12.7 mph 21.9 mph N/A   Partly Cloudy
3:53 PM 100.0 °F - 51.1 °F 19% 29.67 in 10.0 mi South 16.1 mph 23.0 mph N/A   Scattered Clouds
4:53 PM 98.1 °F 96.4 °F 55.0 °F 24% 29.67 in 10.0 mi South 20.7 mph 32.2 mph N/A   Scattered Clouds
5:53 PM 97.0 °F 95.3 °F 55.9 °F 25% 29.66 in 10.0 mi SSE 24.2 mph 31.1 mph N/A   Partly Cloudy
6:53 PM 93.9 °F 92.6 °F 57.0 °F 29% 29.66 in 10.0 mi SSE 26.5 mph 32.2 mph N/A   Scattered Clouds
7:53 PM 91.9 °F 90.6 °F 57.0 °F 31% 29.68 in 10.0 mi South 21.9 mph 29.9 mph N/A   Scattered Clouds
8:53 PM 90.0 °F 89.1 °F 59.0 °F 35% 29.69 in 10.0 mi SSE 25.3 mph 32.2 mph N/A   Scattered Clouds
9:53 PM 87.1 °F 86.5 °F 59.0 °F 39% 29.71 in 10.0 mi SSE 20.7 mph 28.8 mph N/A   Scattered Clouds
10:53 PM 84.0 °F 83.3 °F 57.0 °F 40% 29.73 in 10.0 mi SSE 21.9 mph - N/A   Scattered Clouds
11:53 PM 82.0 °F 81.6 °F 55.9 °F 41% 29.74 in 10.0 mi South 20.7 mph 28.8 mph N/A   Partly Cloudy